Location: DaVinci Observatory
(43.1080°N, 78.6453°W)
Time: 06:30:02
(UTC-05:00)

Vanguard 2 - Visible Passes

Search period start: 21 February 2018 00:00
Search period end: 03 March 2018 00:00
Orbit: 553 x 2939 km, 32.9° (Epoch: 20 February)

Date Brightness Start Highest point End Pass type
(mag) Time Alt. Az. Time Alt. Az. Time Alt. Az.
21 Feb 9.7 18:10:24 10° WSW 18:20:16 38° S 18:26:29 10° ESE visible
21 Feb 9.0 20:21:43 10° WSW 20:28:35 32° SSW 20:28:58 31° S visible
22 Feb 9.5 18:28:16 10° WSW 18:38:13 41° S 18:44:26 10° ESE visible
22 Feb 9.3 20:39:55 10° WSW 20:46:11 28° SSW 20:46:11 28° SSW visible
23 Feb 9.5 18:46:15 10° WSW 18:56:08 41° S 19:01:57 12° ESE visible
23 Feb 9.6 20:58:16 10° WSW 21:03:24 23° SW 21:03:24 23° SW visible
24 Feb 9.5 19:04:20 10° WSW 19:14:01 40° SSW 19:19:11 15° SE visible
24 Feb 10.0 21:16:50 10° WSW 21:20:37 18° SW 21:20:37 18° SW visible
25 Feb 9.6 19:22:31 10° W 19:31:51 37° SSW 19:36:25 17° SE visible
25 Feb 10.4 21:35:55 10° WSW 21:37:51 13° SW 21:37:51 13° SW visible
26 Feb 9.6 19:40:47 10° W 19:49:35 33° SSW 19:53:41 18° SSE visible
27 Feb 9.7 19:59:11 10° W 20:07:14 28° SSW 20:10:57 18° SSE visible
28 Feb 9.9 20:17:46 10° W 20:24:46 22° SW 20:28:16 16° S visible
01 Mar 10.1 18:22:38 10° W 18:34:34 42° SSW 18:42:03 10° SE visible
01 Mar 10.2 20:36:45 10° WSW 20:42:11 17° SW 20:45:36 12° S visible
02 Mar 10.2 18:40:58 10° W 18:52:18 37° SSW 18:59:34 10° SE visible
02 Mar 10.5 20:56:49 10° WSW 20:59:31 12° SW 21:01:54 10° SSW visible
